Weather History for Oskaloosa, IA

Change the Weather History Date:

Sunday, January 13, 2013

  Actual Average (KOTM) Record (KOTM)
Temperature  
Mean Temperature 16 °F 22 °F  
Max Temperature 21 °F 31 °F 59 °F (1961)
Min Temperature 10 °F 13 °F -16 °F (1963)
Degree Days  
Heating Degree Days 50 43  
Month to date heating degree days 553  
Since 1 July heating degree days 3058  
Cooling Degree Days 0 0  
Month to date cooling degree days 0  
Year to date cooling degree days 0  
Moisture  
Dew Point 8 °F    
Average Humidity 71    
Maximum Humidity 82    
Minimum Humidity 58    
Precipitation  
Precipitation 0.00 in 0.03 in 0.62 in (1950)
Month to date precipitation 0.42  
Year to date precipitation 0.42  
Sea Level Pressure  
Sea Level Pressure 30.16 in    
Wind  
Wind Speed 14 mph (WNW)    
Max Wind Speed 22 mph    
Max Gust Speed 26 mph    
Visibility 10 miles    
Events Snow    
T = Trace of Precipitation, MM = Missing Value Source: NWS Daily Summary

Daily Weather History Graph

Daily Weather History Graph

Search for Another Location

Airport:

Trip Planner

Search our weather history database for the weather conditions in past years. The results will help you decide how hot, cold, wet, or windy it might be!

Date:

Astronomy

Jan. 13, 2013 Rise Set
Actual Time 7:33 AM CST 5:03 PM CST
Civil Twilight 7:03 AM CST 5:34 PM CST
Nautical Twilight 6:29 AM CST 6:08 PM CST
Astronomical Twilight 5:56 AM CST 6:41 PM CST
Moon 8:31 AM CST (1/13) 7:44 PM CST (1/13)
Length of Visible Light 10h 31m
Length of Day
9h 29m
Waxing Crescent, 5% of the Moon is Illuminated
Jan 13
Waxing Crescent
Jan 18
First Quarter
Jan 26
Full
Feb 3
Last Quarter
Feb 10
New

Hourly Weather History & Observations

Time (CST) Temp. Windchill Dew Point Humidity Pressure Visibility Wind Dir Wind Speed Gust Speed Precip Events Conditions
12:15 AM 19.8 °F 5.0 °F 11.3 °F 70% 30.01 in 10.0 mi NNW 17.3 mph - N/A   Scattered Clouds
12:35 AM 19.8 °F 5.0 °F 11.3 °F 70% 30.01 in 10.0 mi NNW 17.3 mph 21.9 mph N/A   Mostly Cloudy
12:55 AM 19.4 °F 5.0 °F 11.1 °F 70% 30.02 in 10.0 mi NNW 16.1 mph - N/A   Overcast
1:15 AM 19.4 °F 4.5 °F 11.3 °F 71% 30.05 in 10.0 mi NNW 17.3 mph 20.7 mph N/A   Overcast
1:35 AM 19.0 °F 6.1 °F 10.8 °F 70% 30.06 in 10.0 mi NW 12.7 mph - N/A   Overcast
1:55 AM 18.3 °F 4.1 °F 9.1 °F 67% 30.05 in 10.0 mi NW 15.0 mph 20.7 mph N/A   Overcast
2:15 AM 17.2 °F 2.2 °F 9.1 °F 71% 30.03 in 10.0 mi NW 16.1 mph 19.6 mph N/A   Mostly Cloudy
2:35 AM 16.5 °F 1.8 °F 8.2 °F 70% 30.05 in 10.0 mi NW 15.0 mph - N/A   Scattered Clouds
2:55 AM 16.3 °F 1.6 °F 8.2 °F 70% 30.05 in 10.0 mi NW 15.0 mph 19.6 mph N/A   Clear
3:15 AM 16.0 °F 2.9 °F 8.2 °F 72% 30.07 in 10.0 mi NW 11.5 mph - N/A   Clear
3:35 AM 15.8 °F 2.7 °F 8.2 °F 72% 30.07 in 10.0 mi NW 11.5 mph - N/A   Clear
3:55 AM 15.3 °F 2.0 °F 8.8 °F 76% 30.06 in 10.0 mi WNW 11.5 mph - N/A   Scattered Clouds
4:15 AM 16.0 °F 2.9 °F 9.5 °F 76% 30.06 in 10.0 mi WNW 11.5 mph - N/A   Mostly Cloudy
4:35 AM 16.0 °F 3.6 °F 9.7 °F 76% 30.06 in 10.0 mi WNW 10.4 mph - N/A Snow Light Snow
4:55 AM 16.2 °F 3.9 °F 10.0 °F 77% 30.06 in 10.0 mi WNW 10.4 mph - N/A Snow Light Snow
5:15 AM 16.5 °F 1.8 °F 10.2 °F 76% 30.06 in 10.0 mi NW 15.0 mph - N/A Snow Light Snow
5:35 AM 15.8 °F 0.3 °F 9.5 °F 76% 30.07 in 10.0 mi WNW 16.1 mph - N/A Snow Light Snow
5:55 AM 15.4 °F 1.6 °F 8.4 °F 74% 30.09 in 10.0 mi NW 12.7 mph 18.4 mph N/A   Overcast
6:15 AM 14.7 °F -1.6 °F 7.5 °F 73% 30.09 in 10.0 mi WNW 17.3 mph - N/A   Overcast
6:35 AM 13.1 °F -2.0 °F 5.9 °F 73% 30.12 in 10.0 mi NW 13.8 mph 18.4 mph N/A   Scattered Clouds
6:55 AM 12.6 °F -1.4 °F 5.7 °F 74% 30.14 in 10.0 mi WNW 11.5 mph - N/A   Clear
7:15 AM 12.6 °F -0.6 °F 5.9 °F 75% 30.14 in 10.0 mi NW 10.4 mph - N/A   Clear
7:35 AM 12.0 °F -3.4 °F 5.5 °F 75% 30.14 in 10.0 mi WNW 13.8 mph - N/A   Clear
7:55 AM 11.8 °F -4.2 °F 5.5 °F 76% 30.15 in 10.0 mi WNW 15.0 mph - N/A   Clear
8:15 AM 11.8 °F -4.2 °F 5.0 °F 74% 30.15 in 10.0 mi NW 15.0 mph - N/A   Clear
8:35 AM 12.6 °F -3.3 °F 5.5 °F 74% 30.15 in 10.0 mi WNW 15.0 mph - N/A   Scattered Clouds
8:55 AM 12.7 °F -3.0 °F 5.5 °F 73% 30.15 in 10.0 mi WNW 15.0 mph - N/A   Scattered Clouds
9:15 AM 13.1 °F -1.4 °F 5.5 °F 72% 30.15 in 10.0 mi NW 12.7 mph 18.4 mph N/A   Mostly Cloudy
9:35 AM 14.0 °F 0.5 °F 6.1 °F 71% 30.15 in 10.0 mi NW 11.5 mph - N/A   Mostly Cloudy
9:55 AM 13.8 °F -1.1 °F 5.4 °F 69% 30.15 in 10.0 mi NW 13.8 mph - N/A   Overcast
10:15 AM 14.4 °F -2.0 °F 5.9 °F 69% 30.15 in 10.0 mi WNW 17.3 mph 21.9 mph N/A   Mostly Cloudy
10:35 AM 14.0 °F -2.5 °F 5.4 °F 69% 30.16 in 10.0 mi WNW 17.3 mph 24.2 mph N/A   Mostly Cloudy
10:55 AM 15.1 °F -0.1 °F 5.9 °F 67% 30.17 in 10.0 mi WNW 15.0 mph - N/A   Mostly Cloudy
11:15 AM 15.4 °F -0.1 °F 5.9 °F 66% 30.18 in 10.0 mi WNW 16.1 mph 20.7 mph N/A   Overcast
11:35 AM 15.6 °F 1.2 °F 6.3 °F 67% 30.17 in 10.0 mi WNW 13.8 mph - N/A   Overcast
11:55 AM 15.6 °F 1.2 °F 6.1 °F 66% 30.17 in 10.0 mi WNW 13.8 mph 17.3 mph N/A   Mostly Cloudy
12:15 PM 17.6 °F 4.3 °F 6.6 °F 62% 30.15 in 10.0 mi WNW 12.7 mph 18.4 mph N/A   Mostly Cloudy
12:35 PM 18.0 °F 3.6 °F 7.0 °F 62% 30.15 in 10.0 mi WNW 15.0 mph 20.7 mph N/A   Scattered Clouds
12:55 PM 18.5 °F 3.3 °F 7.5 °F 62% 30.14 in 10.0 mi WNW 17.3 mph 20.7 mph N/A   Scattered Clouds
1:15 PM 19.0 °F 4.5 °F 7.7 °F 61% 30.14 in 10.0 mi West 16.1 mph 20.7 mph N/A   Clear
1:35 PM 19.8 °F 5.4 °F 8.4 °F 61% 30.13 in 10.0 mi WNW 16.1 mph 24.2 mph N/A   Clear
1:55 PM 20.5 °F 4.6 °F 8.4 °F 60% 30.14 in 10.0 mi NW 20.7 mph 24.2 mph N/A   Clear
2:15 PM 20.5 °F 5.5 °F 8.2 °F 59% 30.14 in 10.0 mi WNW 18.4 mph 25.3 mph N/A   Clear
2:35 PM 20.7 °F 6.1 °F 8.1 °F 58% 30.16 in 10.0 mi WNW 17.3 mph 20.7 mph N/A   Clear
2:55 PM 20.8 °F 5.9 °F 8.1 °F 58% 30.16 in 10.0 mi WNW 18.4 mph 26.5 mph N/A   Clear
3:15 PM 20.8 °F 4.7 °F 8.2 °F 58% 30.17 in 10.0 mi WNW 21.9 mph - N/A   Clear
3:35 PM 21.0 °F 6.6 °F 8.8 °F 59% 30.18 in 10.0 mi WNW 17.3 mph 26.5 mph N/A   Clear
3:55 PM 20.7 °F 5.7 °F 8.6 °F 60% 30.19 in 10.0 mi WNW 18.4 mph 24.2 mph N/A   Clear
4:15 PM 20.7 °F 5.7 °F 8.8 °F 60% 30.20 in 10.0 mi WNW 18.4 mph 23.0 mph N/A   Clear
4:35 PM 19.9 °F 4.8 °F 8.6 °F 61% 30.21 in 10.0 mi WNW 18.4 mph - N/A   Clear
4:55 PM 19.0 °F 4.0 °F 8.6 °F 64% 30.22 in 10.0 mi WNW 17.3 mph - N/A   Clear
5:15 PM 18.1 °F 3.9 °F 9.0 °F 67% 30.22 in 10.0 mi WNW 15.0 mph 18.4 mph N/A   Clear
5:35 PM 17.6 °F 5.7 °F 9.3 °F 70% 30.23 in 10.0 mi WNW 10.4 mph - N/A   Clear
5:55 PM 17.4 °F 7.1 °F 9.5 °F 71% 30.23 in 10.0 mi WNW 8.1 mph - N/A   Clear
6:15 PM 16.2 °F 5.5 °F 9.5 °F 75% 30.24 in 10.0 mi WNW 8.1 mph - N/A   Clear
6:35 PM 15.4 °F 6.8 °F 9.3 °F 77% 30.25 in 10.0 mi West 5.8 mph - N/A   Clear
6:55 PM 14.2 °F 6.7 °F 9.1 °F 80% 30.25 in 10.0 mi West 4.6 mph - N/A   Clear
7:15 PM 13.8 °F 3.7 °F 8.6 °F 80% 30.26 in 10.0 mi West 6.9 mph - N/A   Clear
7:35 PM 12.9 °F 2.6 °F 8.4 °F 82% 30.26 in 10.0 mi NW 6.9 mph - N/A   Clear
7:55 PM 14.4 °F 3.3 °F 9.3 °F 80% 30.26 in 10.0 mi WNW 8.1 mph - N/A   Clear
8:15 PM 12.7 °F 2.4 °F 7.7 °F 80% 30.27 in 10.0 mi West 6.9 mph - N/A   Clear
8:35 PM 12.6 °F 6.5 °F 7.7 °F 81% 30.27 in 10.0 mi West 3.5 mph - N/A   Clear
8:55 PM 12.2 °F 1.7 °F 7.5 °F 82% 30.27 in 10.0 mi West 6.9 mph - N/A   Clear
9:15 PM 12.0 °F 1.5 °F 7.3 °F 81% 30.27 in 10.0 mi WNW 6.9 mph - N/A   Clear
9:35 PM 12.0 °F 2.7 °F 7.0 °F 80% 30.27 in 10.0 mi WNW 5.8 mph - N/A   Clear
9:55 PM 11.7 °F 1.1 °F 6.8 °F 81% 30.27 in 10.0 mi WNW 6.9 mph - N/A   Clear
10:15 PM 10.8 °F 0.0 °F 6.1 °F 81% 30.28 in 10.0 mi West 6.9 mph - N/A   Clear
10:35 PM 11.5 °F -0.2 °F 6.1 °F 79% 30.30 in 10.0 mi West 8.1 mph - N/A   Clear
10:55 PM 12.2 °F -0.2 °F 6.6 °F 78% 30.30 in 10.0 mi WNW 9.2 mph - N/A   Clear
11:35 PM 13.8 °F 1.8 °F 6.8 °F 74% 30.30 in 10.0 mi WNW 9.2 mph - N/A   Clear
11:55 PM 13.1 °F 4.0 °F 6.4 °F 75% 30.32 in 10.0 mi WNW 5.8 mph - N/A   Clear